Aviation Digital Data Service (ADDS)

Output produced by METARs form (0131 UTC 23 November 2017)
found at http://www.aviationweather.gov/adds/metars/
 
ORBD 230055Z 00000KT 3200 DUHZ SCT000 SCT023 11/06 A2997 RMK DU SCT000 WND DATA ALSTG ESTMD
TAF AMD ORBD 222015Z 2220/2401 34009KT 5000 DUHZ FEW025 BKN100 QNH2991INS 
     TEMPO 2220/2223 VRB05KT 3200 DU SCT000 BKN025 OVC100 DU SCT000 
     TEMPO 2223/2306 VRB05KT 1600 DUBR BKN000 OVC015 DU BKN000 
     BECMG 2306/2308 34010G15KT 9000 HZ FEW060 QNH2988INS 
     BECMG 2316/2318 32006KT 9999 NSW SCT080 QNH2988INS TX17/2312Z TN10/2304Z
       
ORBI 230100Z 24002KT CAVOK 10/05 Q1015 NOSIG
TAF ORBI 222300Z 2300/2324 33008KT 7000 SCT030
       
ORER 230100Z 19004KT 9000 SCT040 07/03 Q1016 NOSIG
TAF ORER 222300Z 2300/2324 30005KT 7000 SCT030
       
ORMM 230100Z 25006KT CAVOK 10/05 Q1014 NOSIG
TAF ORMM 222200Z 2300/2324 28005KT CAVOK 
     TEMPO 2302/2306 6000 NSC 
     BECMG 2314/2316 29012KT 9999 FEW040
       
ORNI 230100Z 00000KT 8000 NSC 10/07 Q1015 NOSIG
TAF ORNI 222300Z 2300/2324 30008KT 7000 FEW030
       
ORSU 230000Z 29005KT 8000 FEW045 SCT080 05/05 Q1016
TAF ORSU 222300Z 2300/2400 VRB03KT 2000 BR NSC 
     BECMG 2306/2308 25010KT 8000 BKN040 SCT100
       
ORBD 230055Z 00000KT 3200 DUHZ SCT000 SCT023 11/06 A2997 RMK DU SCT000 WND DATA ALSTG ESTMD
TAF AMD ORBD 222015Z 2220/2401 34009KT 5000 DUHZ FEW025 BKN100 QNH2991INS 
     TEMPO 2220/2223 VRB05KT 3200 DU SCT000 BKN025 OVC100 DU SCT000 
     TEMPO 2223/2306 VRB05KT 1600 DUBR BKN000 OVC015 DU BKN000 
     BECMG 2306/2308 34010G15KT 9000 HZ FEW060 QNH2988INS 
     BECMG 2316/2318 32006KT 9999 NSW SCT080 QNH2988INS TX17/2312Z TN10/2304Z
       
ORBI 230100Z 24002KT CAVOK 10/05 Q1015 NOSIG
TAF ORBI 222300Z 2300/2324 33008KT 7000 SCT030
       
ORER 230100Z 19004KT 9000 SCT040 07/03 Q1016 NOSIG
TAF ORER 222300Z 2300/2324 30005KT 7000 SCT030
       
ORMM 230100Z 25006KT CAVOK 10/05 Q1014 NOSIG
TAF ORMM 222200Z 2300/2324 28005KT CAVOK 
     TEMPO 2302/2306 6000 NSC 
     BECMG 2314/2316 29012KT 9999 FEW040
       
ORNI 230100Z 00000KT 8000 NSC 10/07 Q1015 NOSIG
TAF ORNI 222300Z 2300/2324 30008KT 7000 FEW030
       
ORSU 230000Z 29005KT 8000 FEW045 SCT080 05/05 Q1016
TAF ORSU 222300Z 2300/2400 VRB03KT 2000 BR NSC 
     BECMG 2306/2308 25010KT 8000 BKN040 SCT100
       
ORBD 230055Z 00000KT 3200 DUHZ SCT000 SCT023 11/06 A2997 RMK DU SCT000 WND DATA ALSTG ESTMD
TAF AMD ORBD 222015Z 2220/2401 34009KT 5000 DUHZ FEW025 BKN100 QNH2991INS 
     TEMPO 2220/2223 VRB05KT 3200 DU SCT000 BKN025 OVC100 DU SCT000 
     TEMPO 2223/2306 VRB05KT 1600 DUBR BKN000 OVC015 DU BKN000 
     BECMG 2306/2308 34010G15KT 9000 HZ FEW060 QNH2988INS 
     BECMG 2316/2318 32006KT 9999 NSW SCT080 QNH2988INS TX17/2312Z TN10/2304Z
       
ORBI 230100Z 24002KT CAVOK 10/05 Q1015 NOSIG
TAF ORBI 222300Z 2300/2324 33008KT 7000 SCT030
       
ORER 230100Z 19004KT 9000 SCT040 07/03 Q1016 NOSIG
TAF ORER 222300Z 2300/2324 30005KT 7000 SCT030
       
ORMM 230100Z 25006KT CAVOK 10/05 Q1014 NOSIG
TAF ORMM 222200Z 2300/2324 28005KT CAVOK 
     TEMPO 2302/2306 6000 NSC 
     BECMG 2314/2316 29012KT 9999 FEW040
       
ORNI 230100Z 00000KT 8000 NSC 10/07 Q1015 NOSIG
TAF ORNI 222300Z 2300/2324 30008KT 7000 FEW030
       
ORSU 230000Z 29005KT 8000 FEW045 SCT080 05/05 Q1016
TAF ORSU 222300Z 2300/2400 VRB03KT 2000 BR NSC 
     BECMG 2306/2308 25010KT 8000 BKN040 SCT100
       
ORBD 230055Z 00000KT 3200 DUHZ SCT000 SCT023 11/06 A2997 RMK DU SCT000 WND DATA ALSTG ESTMD
TAF AMD ORBD 222015Z 2220/2401 34009KT 5000 DUHZ FEW025 BKN100 QNH2991INS 
     TEMPO 2220/2223 VRB05KT 3200 DU SCT000 BKN025 OVC100 DU SCT000 
     TEMPO 2223/2306 VRB05KT 1600 DUBR BKN000 OVC015 DU BKN000 
     BECMG 2306/2308 34010G15KT 9000 HZ FEW060 QNH2988INS 
     BECMG 2316/2318 32006KT 9999 NSW SCT080 QNH2988INS TX17/2312Z TN10/2304Z
       
ORBI 230100Z 24002KT CAVOK 10/05 Q1015 NOSIG
TAF ORBI 222300Z 2300/2324 33008KT 7000 SCT030
       
ORER 230100Z 19004KT 9000 SCT040 07/03 Q1016 NOSIG
TAF ORER 222300Z 2300/2324 30005KT 7000 SCT030
       
ORMM 230100Z 25006KT CAVOK 10/05 Q1014 NOSIG
TAF ORMM 222200Z 2300/2324 28005KT CAVOK 
     TEMPO 2302/2306 6000 NSC 
     BECMG 2314/2316 29012KT 9999 FEW040
       
ORNI 230100Z 00000KT 8000 NSC 10/07 Q1015 NOSIG
TAF ORNI 222300Z 2300/2324 30008KT 7000 FEW030
       
ORSU 230000Z 29005KT 8000 FEW045 SCT080 05/05 Q1016
TAF ORSU 222300Z 2300/2400 VRB03KT 2000 BR NSC 
     BECMG 2306/2308 25010KT 8000 BKN040 SCT100
       
ORBD 230055Z 00000KT 3200 DUHZ SCT000 SCT023 11/06 A2997 RMK DU SCT000 WND DATA ALSTG ESTMD
TAF AMD ORBD 222015Z 2220/2401 34009KT 5000 DUHZ FEW025 BKN100 QNH2991INS 
     TEMPO 2220/2223 VRB05KT 3200 DU SCT000 BKN025 OVC100 DU SCT000 
     TEMPO 2223/2306 VRB05KT 1600 DUBR BKN000 OVC015 DU BKN000 
     BECMG 2306/2308 34010G15KT 9000 HZ FEW060 QNH2988INS 
     BECMG 2316/2318 32006KT 9999 NSW SCT080 QNH2988INS TX17/2312Z TN10/2304Z
       
ORBI 230100Z 24002KT CAVOK 10/05 Q1015 NOSIG
TAF ORBI 222300Z 2300/2324 33008KT 7000 SCT030
       
ORER 230100Z 19004KT 9000 SCT040 07/03 Q1016 NOSIG
TAF ORER 222300Z 2300/2324 30005KT 7000 SCT030
       
ORMM 230100Z 25006KT CAVOK 10/05 Q1014 NOSIG
TAF ORMM 222200Z 2300/2324 28005KT CAVOK 
     TEMPO 2302/2306 6000 NSC 
     BECMG 2314/2316 29012KT 9999 FEW040
       
ORNI 230100Z 00000KT 8000 NSC 10/07 Q1015 NOSIG
TAF ORNI 222300Z 2300/2324 30008KT 7000 FEW030
       
ORSU 230000Z 29005KT 8000 FEW045 SCT080 05/05 Q1016
TAF ORSU 222300Z 2300/2400 VRB03KT 2000 BR NSC 
     BECMG 2306/2308 25010KT 8000 BKN040 SCT100
       
ORMM 230100Z 25006KT CAVOK 10/05 Q1014 NOSIG
TAF ORMM 222200Z 2300/2324 28005KT CAVOK 
     TEMPO 2302/2306 6000 NSC 
     BECMG 2314/2316 29012KT 9999 FEW040
       
ORBD 230055Z 00000KT 3200 DUHZ SCT000 SCT023 11/06 A2997 RMK DU SCT000 WND DATA ALSTG ESTMD
TAF AMD ORBD 222015Z 2220/2401 34009KT 5000 DUHZ FEW025 BKN100 QNH2991INS 
     TEMPO 2220/2223 VRB05KT 3200 DU SCT000 BKN025 OVC100 DU SCT000 
     TEMPO 2223/2306 VRB05KT 1600 DUBR BKN000 OVC015 DU BKN000 
     BECMG 2306/2308 34010G15KT 9000 HZ FEW060 QNH2988INS 
     BECMG 2316/2318 32006KT 9999 NSW SCT080 QNH2988INS TX17/2312Z TN10/2304Z
       
ORBI 230100Z 24002KT CAVOK 10/05 Q1015 NOSIG
TAF ORBI 222300Z 2300/2324 33008KT 7000 SCT030
       
ORER 230100Z 19004KT 9000 SCT040 07/03 Q1016 NOSIG
TAF ORER 222300Z 2300/2324 30005KT 7000 SCT030
       
ORMM 230100Z 25006KT CAVOK 10/05 Q1014 NOSIG
TAF ORMM 222200Z 2300/2324 28005KT CAVOK 
     TEMPO 2302/2306 6000 NSC 
     BECMG 2314/2316 29012KT 9999 FEW040
       
ORNI 230100Z 00000KT 8000 NSC 10/07 Q1015 NOSIG
TAF ORNI 222300Z 2300/2324 30008KT 7000 FEW030
       
ORSU 230000Z 29005KT 8000 FEW045 SCT080 05/05 Q1016
TAF ORSU 222300Z 2300/2400 VRB03KT 2000 BR NSC 
     BECMG 2306/2308 25010KT 8000 BKN040 SCT100
       
ORBD 230055Z 00000KT 3200 DUHZ SCT000 SCT023 11/06 A2997 RMK DU SCT000 WND DATA ALSTG ESTMD
TAF AMD ORBD 222015Z 2220/2401 34009KT 5000 DUHZ FEW025 BKN100 QNH2991INS 
     TEMPO 2220/2223 VRB05KT 3200 DU SCT000 BKN025 OVC100 DU SCT000 
     TEMPO 2223/2306 VRB05KT 1600 DUBR BKN000 OVC015 DU BKN000 
     BECMG 2306/2308 34010G15KT 9000 HZ FEW060 QNH2988INS 
     BECMG 2316/2318 32006KT 9999 NSW SCT080 QNH2988INS TX17/2312Z TN10/2304Z
       
ORBI 230100Z 24002KT CAVOK 10/05 Q1015 NOSIG
TAF ORBI 222300Z 2300/2324 33008KT 7000 SCT030
       
ORER 230100Z 19004KT 9000 SCT040 07/03 Q1016 NOSIG
TAF ORER 222300Z 2300/2324 30005KT 7000 SCT030
       
ORMM 230100Z 25006KT CAVOK 10/05 Q1014 NOSIG
TAF ORMM 222200Z 2300/2324 28005KT CAVOK 
     TEMPO 2302/2306 6000 NSC 
     BECMG 2314/2316 29012KT 9999 FEW040
       
ORNI 230100Z 00000KT 8000 NSC 10/07 Q1015 NOSIG
TAF ORNI 222300Z 2300/2324 30008KT 7000 FEW030
       
ORSU 230000Z 29005KT 8000 FEW045 SCT080 05/05 Q1016
TAF ORSU 222300Z 2300/2400 VRB03KT 2000 BR NSC 
     BECMG 2306/2308 25010KT 8000 BKN040 SCT100
       
ORBD 230055Z 00000KT 3200 DUHZ SCT000 SCT023 11/06 A2997 RMK DU SCT000 WND DATA ALSTG ESTMD
TAF AMD ORBD 222015Z 2220/2401 34009KT 5000 DUHZ FEW025 BKN100 QNH2991INS 
     TEMPO 2220/2223 VRB05KT 3200 DU SCT000 BKN025 OVC100 DU SCT000 
     TEMPO 2223/2306 VRB05KT 1600 DUBR BKN000 OVC015 DU BKN000 
     BECMG 2306/2308 34010G15KT 9000 HZ FEW060 QNH2988INS 
     BECMG 2316/2318 32006KT 9999 NSW SCT080 QNH2988INS TX17/2312Z TN10/2304Z
       
ORBI 230100Z 24002KT CAVOK 10/05 Q1015 NOSIG
TAF ORBI 222300Z 2300/2324 33008KT 7000 SCT030
       
ORER 230100Z 19004KT 9000 SCT040 07/03 Q1016 NOSIG
TAF ORER 222300Z 2300/2324 30005KT 7000 SCT030
       
ORMM 230100Z 25006KT CAVOK 10/05 Q1014 NOSIG
TAF ORMM 222200Z 2300/2324 28005KT CAVOK 
     TEMPO 2302/2306 6000 NSC 
     BECMG 2314/2316 29012KT 9999 FEW040
       
ORNI 230100Z 00000KT 8000 NSC 10/07 Q1015 NOSIG
TAF ORNI 222300Z 2300/2324 30008KT 7000 FEW030
       
ORSU 230000Z 29005KT 8000 FEW045 SCT080 05/05 Q1016
TAF ORSU 222300Z 2300/2400 VRB03KT 2000 BR NSC 
     BECMG 2306/2308 25010KT 8000 BKN040 SCT100
       
ORBD 230055Z 00000KT 3200 DUHZ SCT000 SCT023 11/06 A2997 RMK DU SCT000 WND DATA ALSTG ESTMD
TAF AMD ORBD 222015Z 2220/2401 34009KT 5000 DUHZ FEW025 BKN100 QNH2991INS 
     TEMPO 2220/2223 VRB05KT 3200 DU SCT000 BKN025 OVC100 DU SCT000 
     TEMPO 2223/2306 VRB05KT 1600 DUBR BKN000 OVC015 DU BKN000 
     BECMG 2306/2308 34010G15KT 9000 HZ FEW060 QNH2988INS 
     BECMG 2316/2318 32006KT 9999 NSW SCT080 QNH2988INS TX17/2312Z TN10/2304Z
       
ORBI 230100Z 24002KT CAVOK 10/05 Q1015 NOSIG
TAF ORBI 222300Z 2300/2324 33008KT 7000 SCT030
       
ORER 230100Z 19004KT 9000 SCT040 07/03 Q1016 NOSIG
TAF ORER 222300Z 2300/2324 30005KT 7000 SCT030
       
ORMM 230100Z 25006KT CAVOK 10/05 Q1014 NOSIG
TAF ORMM 222200Z 2300/2324 28005KT CAVOK 
     TEMPO 2302/2306 6000 NSC 
     BECMG 2314/2316 29012KT 9999 FEW040
       
ORNI 230100Z 00000KT 8000 NSC 10/07 Q1015 NOSIG
TAF ORNI 222300Z 2300/2324 30008KT 7000 FEW030
       
ORSU 230000Z 29005KT 8000 FEW045 SCT080 05/05 Q1016
TAF ORSU 222300Z 2300/2400 VRB03KT 2000 BR NSC 
     BECMG 2306/2308 25010KT 8000 BKN040 SCT100